Regional Weather Roundup
Issued by NWS New Orleans/Baton Rouge, LA

Home | Current Version | Previous Version | Graphics & Text | Print | Product List | Glossary On
Versions: 1 2 3 4 5 6 7 8 9 10 11 12 13 14 15 16 17 18 19 20 21 22 23 24 25 26 27 28 29 30 31 32 33 34 35 36 37 38 39 40 41 42 43 44 45 46 47 48 49 50
460
ASUS44 KLIX 200310
RWRLIX
NEW ORLEANS REGIONAL WEATHER ROUNDUP
NATIONAL WEATHER SERVICE NEW ORLEANS LA
1000 PM CDT SUN OCT 19 2014

NOTE: "FAIR" INDICATES FEW OR NO CLOUDS BELOW 12,000 FEET WITH NO
      SIGNIFICANT WEATHER AND/OR OBSTRUCTIONS TO VISIBILITY.
      SKY/WX - SKY CONDITION AND SIGNIFICANT WEATHER.
      TMP - AIR TEMPERATURE.     DP    - DEWPOINT TEMPERATURE.
      RH  - RELATIVE HUMIDITY.   PRES  - PRESSURE.
      HI  - HEAT INDEX.          WCI   - WIND CHILL INDEX.

*  THESE STATIONS ARE NOT NWS OR FAA STATIONS AND ARE NOT UNDER
   NWS QUALITY CONTROL.

LAZ038-040-048-061>063-065>067-069-200400-
SOUTHEAST LOUISIANA

CITY           SKY/WX    TMP DP  RH WIND       PRES   REMARKS
N.O. AUDUBON     N/A     67  59  74 MISG        N/A
N.O. INTL ARPT PTCLDY    64  56  75 E3        30.07S
N.O. LAKEFRONT CLEAR     68  58  70 SE3       30.08R
N.O. DOWNTOWN*   N/A     70  54  56 CALM      30.08R
SLIDELL        CLEAR     57  54  89 CALM      30.08R
BATON ROUGE    CLEAR     59  56  89 CALM      30.07S
BOOTHVILLE     CLEAR     71  62  73 E6        30.07S
BELLE CHASSE   CLEAR     60  55  83 CALM      30.07S
BOGALUSA*        N/A     55  51  87 CALM      30.10S
NEW ROADS*       N/A     60  56  85 N5        30.08S
GONZALES*        N/A     60  60 100 CALM      30.07S
HAMMOND*       CLEAR     57  54  88 CALM      30.10R
HOUMA*         CLEAR     63  60  90 CALM      30.07R
PORT FOURCHON* PTCLDY    72  66  83 NE10      30.09S

$$

MSZ070-080>082-200400-
SOUTHERN MISSISSIPPI

CITY           SKY/WX    TMP DP  RH WIND       PRES   REMARKS
MCCOMB         CLEAR     55  50  83 CALM      30.09S
GULFPORT       CLEAR     60  56  86 CALM      30.08R
BILOXI         CLEAR     62  58  84 NE1       30.08R
PASCAGOULA     CLEAR     51  50  96 CALM      30.08S

$$

COASTAL OBSERVATIONS
LAKE AND NEARSHORE STATIONS

STATION/POSITION TIME  TEMP    WIND        PRES    WAVE
                       AIR SEA DIR/SP/G            HT/PER
                 (UTC) (F)     (DEG/KT/KT) (MB)    (FT/S)
PASCAGOULA       0300   61     340/  3/  3 1018.0
WAVELAND YACHT   0300   67     320/  3/  3 1017.8
GRAND ISLE       0300   71 78   80/  8/ 12 1018.3
SOUTHWEST PASS   0300   75 85              1018.0
NEW CANAL        0300   67 73   CALM  /  1 1018.7
SHELL BEACH      0300   70 70   70/  5/  6 1018.1

OFFSHORE STATIONS

STATION/POSITION TIME  TEMP    WIND        PRES    WAVE
                       AIR SEA DIR/SP/G            HT/PER
                 (UTC) (F)     (DEG/KT/KT) (MB)    (FT/S)
64 S DAUPHIN ISL 0219   72 79   60/ 10/ 12 1018.4    3/ 6

$$




USA.gov is the U.S. government's official web portal to all federal, state and local government web resources and services.